Flag for U.S.A. Weather past 2 weeks in Aurora, Illinois, U.S.A.

Now
61 °F

Clear.


Feels Like: 61 °F
Forecast: 53 / 72 °F
Wind: 6 mph from South

Location: Dupage Airport


UV Index: 0 (Low)

Visibility: 10 mi


Pressure: 30.02 "Hg

Humidity: 48%

Dew point: 41 °F

Location of AuroraLocation

Historic Weather in Aurora

°F

Aurora temperature yesterday

Maximum temperature yesterday: 69 °F (at 3:52 PM)
Minimum temperature yesterday: 31 °F (at 4:52 AM)
Average temperature yesterday: 52 °F

Past Weeks' High & Low Weather Summary

 TemperatureHumidityPressure
High79 °F (Apr 12, 3:52 PM)96% (Apr 13, 6:52 PM)30.38 "Hg (Apr 13, 6:52 PM)
Low24 °F (Apr 15, 5:52 AM)16% (Apr 11, 11:52 AM)29.35 "Hg (Apr 14, 2:52 AM)
Average49 °F58%29.98 "Hg
* Reported Apr 5 8:52 PM — Apr 20 8:52 PM, Aurora, Weather by CustomWeather, © 2014

Note: Actual official high and low records may vary slightly from our data, if they occured in-between our weather recording intervals... More about our weather records

Advertising

Historic Weather Conditions — Data for Previous 24 hours

 ConditionsComfort  
Time TempWeatherWind HumidityBarometerVisibility
8:52 PM
Apr 20
63 °FClear.6 mph47%30.03 "Hg10 mi
7:52 PM66 °FSunny.6 mph40%30.03 "Hg10 mi
6:52 PM70 °FSunny.7 mph38%30.04 "Hg10 mi
5:52 PM77 °FSunny.9 mph28%30.05 "Hg10 mi
4:52 PM79 °FSunny.15 mph27%30.06 "Hg10 mi
3:52 PM79 °FSunny.12 mph26%30.08 "Hg10 mi
2:52 PM78 °FSunny.12 mph27%30.09 "Hg10 mi
1:52 PM77 °FSunny.13 mph28%30.12 "Hg10 mi
12:52 PM74 °FSunny.13 mph29%30.14 "Hg10 mi
11:52 AM71 °FSunny.15 mph31%30.16 "Hg10 mi
10:52 AM66 °FSunny.15 mph36%30.19 "Hg10 mi
9:52 AM62 °FSunny.14 mph38%30.19 "Hg10 mi
8:52 AM56 °FSunny.15 mph44%30.21 "Hg10 mi
7:52 AM50 °FSunny.12 mph48%30.22 "Hg10 mi
6:52 AM45 °FClear.8 mph56%30.23 "Hg10 mi
5:52 AM42 °FClear.6 mph68%30.21 "Hg10 mi
4:52 AM43 °FClear.3 mph65%30.20 "Hg10 mi
3:52 AM43 °FClear.8 mph68%30.21 "Hg10 mi
2:52 AM46 °FClear.5 mph63%30.22 "Hg10 mi
1:52 AM49 °FClear.No wind59%30.22 "Hg10 mi
12:52 AM53 °FClear.10 mph55%30.21 "Hg10 mi
11:52 PM
Apr 19
54 °FClear.9 mph53%30.22 "Hg10 mi
10:52 PM56 °FClear.10 mph49%30.22 "Hg10 mi
Weather by CustomWeather, © 2014

See weather overview